Weather History for Van, Turkey

Change the Weather History Date:

Saturday, January 19, 2013

  Actual Average Record
Temperature  
Mean Temperature 27 °F -  
Max Temperature 42 °F 35 °F 42 °F (2013)
Min Temperature 12 °F 18 °F 8 °F (2008)
Degree Days  
Heating Degree Days 38    
Moisture  
Dew Point 19 °F    
Average Humidity 77    
Maximum Humidity 93    
Minimum Humidity 42    
Precipitation  
Precipitation 0.00 in 0.04 in - ()
Sea Level Pressure  
Sea Level Pressure 30.10 in    
Wind  
Wind Speed 3 mph ()    
Max Wind Speed 7 mph    
Max Gust Speed -    
Visibility 4.4 miles    
Events      
Averages and records for this station are not official NWS values.
T = Trace of Precipitation, MM = Missing Value Source: Averaged Metar Reports

Daily Weather History Graph

Daily Weather History Graph

Search for Another Location

Airport:

Trip Planner

Search our weather history database for the weather conditions in past years. The results will help you decide how hot, cold, wet, or windy it might be!

Date:

Astronomy

Jan. 19, 2013 Rise Set
Actual Time 6:20 AM EET 4:14 PM EET
Civil Twilight 5:52 AM EET 4:42 PM EET
Nautical Twilight 5:19 AM EET 5:15 PM EET
Astronomical Twilight 4:48 AM EET 5:46 PM EET
Moon 10:27 AM EET (1/19) No Moon Set
Length of Visible Light 10h 50m
Length of Day
9h 53m
First Quarter, 54% of the Moon is Illuminated
Jan 19
First Quarter
Jan 27
Full
Feb 3
Last Quarter
Feb 10
New
Feb 17
First Quarter

Hourly Weather History & Observations

Time (EET) Temp. Windchill Dew Point Humidity Pressure Visibility Wind Dir Wind Speed Gust Speed Precip Events Conditions
12:50 AM 19.4 °F 12.8 °F 15.8 °F 86% 30.15 in 3.7 mi ENE 4.6 mph - N/A   Mostly Cloudy
1:50 AM 19.4 °F 12.8 °F 15.8 °F 86% 30.15 in 3.7 mi ENE 4.6 mph - N/A   Mostly Cloudy
2:00 AM 21 °F - 18 °F 86%  in 6 mi ESE 2.3 mph - -   Mist
2:50 AM 15.8 °F 8.6 °F 14.0 °F 93% 30.12 in 6.2 mi East 4.6 mph - N/A   Mostly Cloudy
3:50 AM 15.8 °F 8.6 °F 14.0 °F 93% 30.15 in 6.2 mi East 4.6 mph - N/A   Mostly Cloudy
4:50 AM 14.0 °F - 12.2 °F 93% 30.15 in 6.2 mi Variable 2.3 mph - N/A   Scattered Clouds
5:50 AM 14.0 °F - 12.2 °F 93% 30.15 in 6.2 mi Variable 2.3 mph - N/A   Scattered Clouds
6:50 AM 14.0 °F - 12.2 °F 93% 30.15 in 6.2 mi Variable 2.3 mph - N/A   Scattered Clouds
7:50 AM 21.2 °F 12.6 °F 14.0 °F 74% 30.15 in 2.5 mi ENE 6.9 mph - N/A   Scattered Clouds
8:00 AM 20 °F - 13 °F 66%  in 2 mi ENE 6.9 mph - -   Mist
8:50 AM 28.4 °F - 15.8 °F 59% 30.15 in 3.7 mi Variable 1.2 mph - N/A   Scattered Clouds
9:50 AM 30.2 °F 25.4 °F 21.2 °F 69% 30.15 in 3.7 mi South 4.6 mph - N/A   Scattered Clouds
10:50 AM 33.8 °F - 21.2 °F 60% 30.15 in 4.3 mi Variable 2.3 mph - N/A   Scattered Clouds
11:50 AM 37.4 °F - 21.2 °F 52% 30.12 in 5.6 mi Variable 1.2 mph - N/A   Scattered Clouds
12:50 PM 35.6 °F 32.8 °F 23.0 °F 60% 30.09 in 5.6 mi West 3.5 mph - N/A   Scattered Clouds
1:50 PM 35.6 °F - 21.2 °F 56% 30.09 in 5.0 mi Variable 2.3 mph - N/A   Scattered Clouds
2:00 PM 36 °F - 21 °F 42%  in 5 mi West 2.3 mph - -   Haze
2:50 PM 33.8 °F 29.6 °F 23.0 °F 65% 30.06 in 4.3 mi SSW 4.6 mph - N/A   Haze
3:50 PM 32.0 °F 28.7 °F 23.0 °F 69% 30.06 in 3.7 mi SSE 3.5 mph - N/A   Scattered Clouds
4:50 PM 28.4 °F 23.3 °F 23.0 °F 80% 30.06 in 3.7 mi SE 4.6 mph - N/A   Mostly Cloudy
5:50 PM 26.6 °F 22.6 °F 23.0 °F 86% 30.06 in 3.7 mi East 3.5 mph - N/A   Mostly Cloudy
6:50 PM 26.6 °F - 23.0 °F 86% 30.06 in 3.7 mi ESE 2.3 mph - N/A   Mostly Cloudy
7:50 PM 28.4 °F 22.2 °F 21.2 °F 74% 30.04 in 3.7 mi ENE 5.8 mph - N/A   Mostly Cloudy
8:00 PM 28 °F - 22 °F 69%  in 4 mi ENE 5.8 mph - -   Mist
8:50 PM 26.6 °F 20.0 °F 24.8 °F 93% 30.04 in 3.7 mi East 5.8 mph - N/A   Mostly Cloudy
9:50 PM 26.6 °F 21.2 °F 23.0 °F 86% 30.04 in 3.7 mi North 4.6 mph - N/A   Mostly Cloudy
10:50 PM 24.8 °F 19.1 °F 23.0 °F 93% 30.01 in 3.7 mi ENE 4.6 mph - N/A   Mostly Cloudy
11:50 PM 26.6 °F - 23.0 °F 86% 30.01 in 3.7 mi East 2.3 mph - N/A   Mostly Cloudy